• En España
  • Lista de países
  • Para 7 días
  • Temperatura del agua
  • Mapa Satelital
  • El tiempo en el mapa
  • Informadores
  • user-avatar
    Iniciar sesión

    Tiempo cada hora Strzyzawa

    Hoy, 17 Julio, Martes

    Tiempo Temperatura Precipitaciones Viento Presión Humedad
    00:00 +19°C° 0,8 mm 2 mps 754 mmHg 95%
    01:00 +19°C° 0,8 mm 2 mps 754 mmHg 95%
    02:00 +19°C° 1,2 mm 2 mps 754 mmHg 95%
    03:00 +19°C° 1,2 mm 2 mps 753 mmHg 95%
    04:00 +19°C° 1,2 mm 2 mps 753 mmHg 95%
    05:00 +19°C° 1 mm 3 mps 753 mmHg 94%
    06:00 +20°C° 1 mm 3 mps 753 mmHg 93%
    07:00 +20°C° 1 mm 3 mps 753 mmHg 92%
    08:00 +20°C° 1 mm 3 mps 753 mmHg 90%
    09:00 +21°C° 1 mm 3 mps 753 mmHg 88%
    10:00 +21°C° 1 mm 3 mps 753 mmHg 86%
    11:00 +22°C° 0,8 mm 3 mps 753 mmHg 85%
    12:00 +22°C° 0,8 mm 4 mps 753 mmHg 84%
    13:00 +22°C° 0,8 mm 4 mps 753 mmHg 83%
    14:00 +22°C° 0,7 mm 4 mps 753 mmHg 84%
    15:00 +22°C° 0,7 mm 4 mps 753 mmHg 85%
    16:00 +22°C° 0,7 mm 5 mps 752 mmHg 86%
    17:00 +21°C° 0,7 mm 4 mps 752 mmHg 88%
    18:00 +21°C° 0,7 mm 4 mps 752 mmHg 90%
    19:00 +20°C° 0,7 mm 4 mps 752 mmHg 92%
    20:00 +20°C° 0,8 mm 4 mps 753 mmHg 94%
    21:00 +20°C° 0,8 mm 4 mps 753 mmHg 95%
    22:00 +20°C° 0,8 mm 4 mps 753 mmHg 96%
    23:00 +20°C° 1,3 mm 4 mps 753 mmHg 96%

    Mañana, 18 Julio, Miércoles

    Tiempo Temperatura Precipitaciones Viento Presión Humedad
    00:00 +20°C° 1,3 mm 4 mps 753 mmHg 96%
    01:00 +19°C° 1,3 mm 4 mps 753 mmHg 97%
    02:00 +19°C° 0,7 mm 4 mps 753 mmHg 97%
    03:00 +19°C° 0,7 mm 4 mps 753 mmHg 97%
    04:00 +19°C° 0,7 mm 4 mps 753 mmHg 97%
    05:00 +20°C° 0,5 mm 4 mps 753 mmHg 96%
    06:00 +20°C° 0,5 mm 3 mps 753 mmHg 96%
    07:00 +20°C° 0,5 mm 3 mps 753 mmHg 95%
    08:00 +21°C° 0,7 mm 4 mps 753 mmHg 93%
    09:00 +22°C° 0,7 mm 4 mps 753 mmHg 90%
    10:00 +23°C° 0,7 mm 4 mps 754 mmHg 87%
    11:00 +25°C° 1,1 mm 5 mps 754 mmHg 84%
    12:00 +26°C° 1,1 mm 5 mps 754 mmHg 81%
    13:00 +27°C° 1,1 mm 5 mps 754 mmHg 78%
    14:00 +26°C° 0,9 mm 5 mps 754 mmHg 79%
    15:00 +26°C° 0,9 mm 6 mps 754 mmHg 80%
    16:00 +26°C° 0,9 mm 6 mps 754 mmHg 80%
    17:00 +25°C° 0,6 mm 5 mps 754 mmHg 83%
    18:00 +23°C° 0,6 mm 5 mps 755 mmHg 86%
    19:00 +22°C° 0,6 mm 5 mps 755 mmHg 89%
    20:00 +21°C° 0 mm 4 mps 755 mmHg 90%
    21:00 +21°C° 0 mm 4 mps 755 mmHg 91%
    22:00 +20°C° 0 mm 4 mps 755 mmHg 93%
    23:00 +20°C° 0 mm 4 mps 755 mmHg 93%

    Pasado mañana, 19 Julio, Jueves

    Tiempo Temperatura Precipitaciones Viento Presión Humedad
    00:00 +20°C° 0 mm 4 mps 755 mmHg 93%
    01:00 +19°C° 0 mm 3 mps 755 mmHg 93%
    02:00 +19°C° 0 mm 3 mps 755 mmHg 93%
    03:00 +19°C° 0 mm 3 mps 755 mmHg 93%
    04:00 +19°C° 0 mm 3 mps 755 mmHg 92%
    05:00 +19°C° 0 mm 3 mps 756 mmHg 91%
    06:00 +20°C° 0 mm 3 mps 756 mmHg 89%
    07:00 +20°C° 0 mm 3 mps 756 mmHg 88%
    08:00 +21°C° 0 mm 3 mps 756 mmHg 84%
    09:00 +22°C° 0 mm 3 mps 756 mmHg 81%
    10:00 +23°C° 0 mm 4 mps 756 mmHg 77%
    11:00 +25°C° 0,1 mm 4 mps 756 mmHg 73%
    12:00 +26°C° 0,1 mm 4 mps 756 mmHg 68%
    13:00 +27°C° 0,1 mm 4 mps 756 mmHg 63%
    14:00 +27°C° 0,1 mm 4 mps 756 mmHg 63%
    15:00 +27°C° 0,1 mm 4 mps 756 mmHg 64%
    16:00 +27°C° 0,1 mm 4 mps 756 mmHg 64%
    17:00 +26°C° 0,1 mm 4 mps 756 mmHg 68%
    18:00 +25°C° 0,1 mm 4 mps 756 mmHg 71%
    19:00 +24°C° 0,1 mm 3 mps 756 mmHg 75%
    20:00 +21°C° 0 mm 3 mps 757 mmHg 78%
    21:00 +20°C° 0 mm 3 mps 757 mmHg 82%
    22:00 +19°C° 0 mm 3 mps 757 mmHg 86%
    23:00 +19°C° 0 mm 3 mps 757 mmHg 87%

    20 Julio, Viernes

    Tiempo Temperatura Precipitaciones Viento Presión Humedad
    00:00 +18°C° 0 mm 3 mps 757 mmHg 89%
    01:00 +18°C° 0 mm 3 mps 757 mmHg 90%
    02:00 +17°C° 0 mm 3 mps 757 mmHg 91%
    03:00 +17°C° 0 mm 3 mps 757 mmHg 91%
    04:00 +17°C° 0 mm 3 mps 756 mmHg 92%
    05:00 +18°C° 0 mm 3 mps 757 mmHg 87%
    06:00 +19°C° 0 mm 3 mps 757 mmHg 83%
    07:00 +20°C° 0 mm 3 mps 757 mmHg 78%
    08:00 +22°C° 0 mm 3 mps 757 mmHg 72%
    09:00 +25°C° 0 mm 4 mps 757 mmHg 65%
    10:00 +26°C° 0 mm 4 mps 757 mmHg 59%
    11:00 +27°C° 0 mm 4 mps 756 mmHg 57%
    12:00 +28°C° 0 mm 4 mps 756 mmHg 54%
    13:00 +28°C° 0 mm 4 mps 756 mmHg 51%
    14:00 +28°C° 0 mm 4 mps 756 mmHg 53%
    15:00 +28°C° 0 mm 4 mps 756 mmHg 54%
    16:00 +28°C° 0 mm 4 mps 756 mmHg 55%
    17:00 +26°C° 0,1 mm 4 mps 756 mmHg 61%
    18:00 +25°C° 0,1 mm 3 mps 756 mmHg 67%
    19:00 +24°C° 0,1 mm 3 mps 756 mmHg 72%
    20:00 +22°C° 0 mm 3 mps 756 mmHg 77%
    21:00 +20°C° 0 mm 3 mps 756 mmHg 81%
    22:00 +19°C° 0 mm 2 mps 756 mmHg 85%
    23:00 +18°C° 0 mm 2 mps 756 mmHg 85%

    21 Julio, Sábado

    Tiempo Temperatura Precipitaciones Viento Presión Humedad
    00:00 +17°C° 0 mm 2 mps 756 mmHg 86%
    01:00 +17°C° 0 mm 2 mps 756 mmHg 87%
    02:00 +16°C° 0 mm 2 mps 756 mmHg 86%
    03:00 +16°C° 0 mm 2 mps 756 mmHg 85%
    04:00 +15°C° 0 mm 2 mps 756 mmHg 83%
    05:00 +17°C° 0 mm 2 mps 756 mmHg 79%
    06:00 +18°C° 0 mm 2 mps 756 mmHg 74%
    07:00 +20°C° 0 mm 2 mps 756 mmHg 70%
    08:00 +21°C° 0 mm 2 mps 756 mmHg 64%
    09:00 +24°C° 0 mm 2 mps 756 mmHg 58%
    10:00 +25°C° 0 mm 2 mps 756 mmHg 52%
    11:00 +26°C° 0 mm 2 mps 756 mmHg 49%
    12:00 +27°C° 0 mm 2 mps 756 mmHg 46%
    13:00 +28°C° 0 mm 2 mps 756 mmHg 43%
    14:00 +28°C° 0 mm 2 mps 756 mmHg 43%
    15:00 +28°C° 0 mm 2 mps 755 mmHg 43%
    16:00 +28°C° 0 mm 2 mps 755 mmHg 43%
    17:00 +26°C° 0 mm 2 mps 755 mmHg 50%
    18:00 +25°C° 0 mm 2 mps 755 mmHg 57%
    19:00 +24°C° 0 mm 2 mps 755 mmHg 63%
    20:00 +21°C° 0 mm 3 mps 755 mmHg 68%
    21:00 +20°C° 0 mm 3 mps 756 mmHg 72%
    22:00 +19°C° 0 mm 3 mps 756 mmHg 76%
    23:00 +18°C° 0 mm 3 mps 756 mmHg 78%

    22 Julio, Domingo

    Tiempo Temperatura Precipitaciones Viento Presión Humedad
    00:00 +17°C° 0 mm 2 mps 756 mmHg 79%
    01:00 +17°C° 0 mm 2 mps 756 mmHg 81%
    02:00 +16°C° 0 mm 2 mps 756 mmHg 79%
    03:00 +16°C° 0 mm 1 mps 756 mmHg 78%
    04:00 +16°C° 0 mm 1 mps 756 mmHg 77%
    05:00 +18°C° 0 mm 1 mps 756 mmHg 73%
    06:00 +18°C° 0 mm 2 mps 756 mmHg 69%
    07:00 +20°C° 0 mm 2 mps 756 mmHg 66%
    08:00 +21°C° 0 mm 2 mps 756 mmHg 60%
    09:00 +23°C° 0 mm 2 mps 756 mmHg 55%
    10:00 +25°C° 0 mm 2 mps 756 mmHg 50%
    11:00 +25°C° 0 mm 2 mps 756 mmHg 48%
    12:00 +26°C° 0 mm 2 mps 756 mmHg 46%
    13:00 +27°C° 0 mm 2 mps 755 mmHg 45%
    14:00 +26°C° 0,1 mm 2 mps 755 mmHg 48%
    15:00 +26°C° 0,1 mm 2 mps 755 mmHg 51%
    16:00 +26°C° 0,1 mm 2 mps 755 mmHg 54%
    17:00 +25°C° 0,3 mm 2 mps 755 mmHg 61%
    18:00 +23°C° 0,3 mm 2 mps 755 mmHg 68%
    19:00 +21°C° 0,3 mm 2 mps 755 mmHg 75%
    20:00 +20°C° 0 mm 2 mps 756 mmHg 79%
    21:00 +19°C° 0 mm 2 mps 756 mmHg 84%
    22:00 +18°C° 0 mm 2 mps 756 mmHg 88%
    23:00 +17°C° 0 mm 2 mps 756 mmHg 90%
    Mostrar más